Simultaneous Nadir Overpasses (SNOs) Predictions

Prediction of SNOs between LANDSAT-8 and NOAA-19 Satellite Orbit:

Table of predicted SNOs for the next 14.0 days since TLE Epoch: 11/14/2014
Index Date (LANDSAT-8) Time (LANDSAT-8) Lat,Lon (LANDSAT-8) SZA (LANDSAT-8 ) Date (NOAA-19) Time (NOAA-19) Lat,Lon (NOAA-19) SZA (NOAA-19 ) Distance(km) Time Diff (sec)
1 11/14/2014 16:01:45 72.46, -60.34 90.72 11/14/2014 16:00:52 72.47, -60.30 90.73 1.83 53
2 11/14/2014 16:51:14 -72.39, 107.17 89.35 11/14/2014 16:51:52 -72.36, 107.17 89.38 3.73 38
3 11/16/2014 20:45:52 72.95,-130.46 91.78 11/16/2014 20:44:43 73.04,-132.41 91.83 64.10 69
4 11/16/2014 21:35:30 -72.41, 36.14 88.78 11/16/2014 21:35:33 -72.39, 36.21 88.79 2.93 3
5 11/19/2014 02:19:45 -72.45, -34.85 88.21 11/19/2014 02:19:14 -72.44, -34.77 88.22 3.24 31
6 11/19/2014 03:09:12 72.36, 132.62 91.71 11/19/2014 03:10:12 72.34, 132.67 91.70 2.14 60
7 11/21/2014 07:03:59 -72.53,-105.78 87.63 11/21/2014 07:02:56 -72.54,-105.86 87.63 3.14 63
8 11/21/2014 07:53:26 72.43, 61.69 92.28 11/21/2014 07:53:53 72.42, 61.63 92.27 2.29 27
9 11/23/2014 12:37:40 72.48, -9.29 92.79 11/23/2014 12:37:33 72.45, -9.33 92.77 2.63 7
10 11/23/2014 13:27:18 -71.93, 157.37 87.76 11/23/2014 13:28:27 -71.93, 158.96 87.73 54.72 69
11 11/25/2014 17:21:54 72.50, -80.31 93.25 11/25/2014 17:21:13 72.49, -80.29 93.25 0.97 41
12 11/25/2014 18:11:24 -72.38, 87.11 86.86 11/25/2014 18:12:16 -72.40, 87.14 86.85 1.64 52
13 11/27/2014 22:06:07 72.54,
